GORIZONT 24 [-]

Last updated on Jan. 25, 2020, 4:43 a.m. UTC

1 21759U 91074A   20024.22457825 -.00000248  00000-0  00000-0 0  9993
2 21759  15.3751   1.6265 0015981 217.9346 146.4801  0.98445311101960
UTC
Height (km)
Latitude
Longitude
Inclination
Orbital Period
UTC large
Height (km)
Speed (km/s)
/
Latitude / Longitude
Inclination (degrees)
Orbital Period (minutes)
Azimuth
Elevation
Range (km)
Doppler Factor
iOS Compass Heading
iOS Angle

Next 30 passes for location: Hong Kong

Rise time Rise Azimuth (degrees) Set time Set Azimuth (degrees) Duration Max altitude (degrees)

No matching passes for this satellites